Regional Weather Roundup
Issued by NWS

Home | Current Version | Previous Version | Text Only | Print | Product List | Glossary Off
Versions: 1 2 3 4 5 6 7 8 9 10 11 12 13 14 15 16 17 18 19 20 21 22 23 24 25 26 27 28 29 30 31 32 33 34 35 36 37 38 39 40 41 42 43 44 45 46 47 48 49 50

000
ASUS43 KMPX 051801
RWRMN
WEATHER ROUNDUP FOR MINNESOTA
NATIONAL WEATHER SERVICE TWIN CITIES/CHANHASSEN MN
100 PM CDT THU MAY 05 2016


NOTE: "FAIR" INDICATES FEW OR NO CLOUDS BELOW 12,000 FEET WITH NO
SIGNIFICANT WEATHER AND/OR OBSTRUCTIONS TO VISIBILITY. N/A MEANS
CURRENT SKY AND/OR WEATHER CONDITIONS ARE NOT AVAILABLE.

MNZ060>063-068>070-051900-
   Twin Cities Metro

CITY           SKY/WX    TMP DP  RH WIND       PRES   REMARKS
TWIN CITIES    LGT RAIN  64  36  35 SW6       30.03S
6HR MIN TEMP:  49; 6HR MAX TEMP:  67; 6HR PCP: TRACE;

ST PAUL        CLOUDY    64  35  34 SW10      30.03S
CRYSTAL        PTSUNNY   69  31  24 S10       30.01F
BLAINE         MOSUNNY   66  34  30 S8        30.02F
EDEN PRAIRIE   MOSUNNY   70  30  22 SW8       30.02S
6HR MIN TEMP:  45; 6HR MAX TEMP:  70;

SOUTH ST PAUL  MOSUNNY   65  31  28 SW3       30.01F
LAKE ELMO      FAIR      64  37  36 SW6       30.03F
$$
MNZ001>005-007-008-013>017-022>024-027-028-051900-
   Northwest Minnesota

CITY           SKY/WX    TMP DP  RH WIND       PRES   REMARKS
BEMIDJI        SUNNY     80  41  25 W9G25     29.86F
HALLOCK        SUNNY     90  36  14 W23       29.73F
ROSEAU         SUNNY     84  48  28 SW15G24   29.75F
WARROAD        SUNNY     81  54  39 SW13G24   29.75F
THIEF RVR FALL SUNNY     82  43  24 SW13      29.82F
CROOKSTON      SUNNY     90  41  18 W23G29    29.80F
FOSSTON        SUNNY     81  39  22 SW18      29.86F
DETROIT LAKES  SUNNY     77  41  27 SW15      29.92F
MOORHEAD       SUNNY     82  41  23 SW7G16    29.87F
PARK RAPIDS    SUNNY     79  39  23 SW14G22   29.90F
MAHNOMEN       FAIR      79  41  25 SW20G25   29.88F
$$
MNZ006-009>011-018-025>026-051900-
   North Central Minnesota

CITY           SKY/WX    TMP DP  RH WIND       PRES   REMARKS
BAUDETTE       SUNNY     80  43  26 SW10G24   29.76F
FLAG ISLAND    SUNNY     55  45  67 S10       29.72F
INTL FALLS     SUNNY     79  40  24 SW16G24   29.78F
6HR MIN TEMP:  47; 6HR MAX TEMP:  79; 6HR PCP:  0.01;

WASKISH        SUNNY     75  45  33 SW16      29.82F
BIG FORK       SUNNY     77  37  24 SW14      29.85F
LONGVILLE      SUNNY     75  36  23 SW12G20   29.90F
GRAND RAPIDS   SUNNY     73  36  25 S16G22    29.90F
CRANE LAKE     SUNNY     72  37  28 S8G16     29.83F
ORR            SUNNY     75  30  19 SW6       29.81F
COOK           MOSUNNY   72  37  28 SW13G18   29.85F
WALKER         FAIR      76  38  26 SW13G18   29.88F
$$
MNZ012-019>021-037-051900-
   Northeast Minnesota

CITY           SKY/WX    TMP DP  RH WIND       PRES   REMARKS
DULUTH         MOSUNNY   65  35  33 SW17      29.93F
6HR MIN TEMP:  43; 6HR MAX TEMP:  67; 6HR PCP: TRACE;

ELY            SUNNY     66  34  30 S14       29.86F
HIBBING        SUNNY     70  36  28 S10       29.87F
EVELETH        SUNNY     70  34  26 SW12      29.89F
DULUTH HARBOR  CLOUDY    66  37  34 SW17      29.93F
TWO HARBORS    SUNNY     64  46  52 SW7       29.90F
SILVER BAY     SUNNY     64  37  36 S10       29.88F
GRAND MARAIS     N/A     41  36  82 SW8       29.93F
G MARAIS ARPRT SUNNY     57  30  35 S9        29.90F
$$
MNZ029>031-032-039>041-046>048-054>057-064-051900-
   West Central Minnesota

CITY           SKY/WX    TMP DP  RH WIND       PRES   REMARKS
FERGUS FALLS   SUNNY     81  45  28 SW13G22   29.88F
WHEATON        SUNNY     84  46  26 SW10      29.93F
MORRIS         SUNNY     81  41  24 SW14      29.93F
ALEXANDRIA     SUNNY     76  37  24 S17       29.97F
ELBOW LAKE     FAIR      78  44  29 SW13      29.94F
WADENA         SUNNY     77  43  29 S12       29.92F
GLENWOOD       SUNNY     75  36  23 S16       29.97F
APPLETON       SUNNY     81  36  19 SW8       29.95F
BENSON         SUNNY     77  34  20 SW12G18   29.96F
ORTONVILLE     SUNNY     81  41  24 W8        29.94F
MADISON        SUNNY     79  37  22 S9        29.96F
WILLMAR        FAIR      75  36  23 S7        29.99F
$$
MNZ033>034-036-042>043-049>051-058-059-051900-
   Central Minnesota

CITY           SKY/WX    TMP DP  RH WIND       PRES   REMARKS
ST CLOUD       SUNNY     72  31  22 SW12      29.98F
6HR MIN TEMP:  40; 6HR MAX TEMP:  72;

SAUK CENTRE    FAIR      74  37  25 S12G23    29.97F
PAYNESVILLE    SUNNY     74  29  19 SW12      29.99F
AITKIN         MOSUNNY   75  25  15 SW12G17   29.91F
PINE RIVER     SUNNY     75  43  31 SW12G22   29.94F
BRAINERD       SUNNY     74  33  22 SW16G22   29.94F
STAPLES        SUNNY     75  34  22 SW10G17   29.94S
LONG PRAIRIE   FAIR      73  37  27 S13G18    29.97F
LITTLE FALLS   SUNNY     72  32  23 SW9       29.96F
LITCHFIELD     SUNNY     73  30  20 SW3       30.00F
BUFFALO        PTSUNNY   68  31  25 S9        30.02S
MAPLE LAKE     MOSUNNY   71  36  27 S6        30.01F
HUTCHINSON     SUNNY     73  34  24 S9        30.01F
$$
MNZ037-044-045-052-053-051900-
   East Central Minnesota

CITY           SKY/WX    TMP DP  RH WIND       PRES   REMARKS
PRINCETON      SUNNY     72  32  23 S8        29.99F
MORA           SUNNY     64  32  29 SW8G16    29.99F
CAMBRIDGE      SUNNY     70  45  40 SW8       29.97F
RUSH CITY      MOSUNNY   62  41  45 S9        29.99F
MOOSE LAKE     SUNNY     64  37  36 SW10      29.94
HINCKLEY       CLOUDY    61  41  48 S13       29.98F
CLOQUET        SUNNY     66  28  24 SW14      29.93F
MCGREGOR       MOSUNNY   70  32  24 SW12G20   29.93F
$$
MNZ071>073-080-081-089-090-097-098-051900-
   Southwest Minnesota

CITY           SKY/WX    TMP DP  RH WIND       PRES   REMARKS
MONTEVIDEO     SUNNY     79  43  27 SW10      29.99F
GRANITE FALLS  SUNNY     79  38  22 S9G17     30.00F
CANBY          SUNNY     79  44  29 SW7       29.99F
MARSHALL       SUNNY     76  39  26 S13       29.99F
REDWOOD FALLS  SUNNY     75  33  21 S10       29.99F
OLIVIA         SUNNY     73  34  23 S9        29.99F
PIPESTONE      SUNNY     72  37  28 SW8       30.03F
WINDOM         SUNNY     72  32  23 CALM      30.04F
WORTHINGTON    SUNNY     70  36  28 SW10      30.04F
JACKSON        SUNNY     70  28  21 SW3       30.06F
TRACY          SUNNY     74  38  26 S8G17     30.01F
SLAYTON        SUNNY     71  34  25 S8        30.04F
$$
MNZ065>067-074>077-082>085-091>093-051900-
   South Central Minnesota

CITY           SKY/WX    TMP DP  RH WIND       PRES   REMARKS
MANKATO        SUNNY     68  28  22 W13       30.03F
ST JAMES       SUNNY     64  30  27 SW8       30.03F
FAIRMONT       SUNNY     66  32  28 W9        30.04F
GLENCOE        MOSUNNY   71  36  26 SW5       30.00F
FARIBAULT      SUNNY     66  32  28 W7        30.04F
OWATONNA       SUNNY     68  25  19 S8        30.04F
WASECA         MOSUNNY   70  32  24 SW7       30.04F
ALBERT LEA     SUNNY     66  27  22 S6        30.05F
$$
MNZ078>079-086>088-094>096-051900-
   Southeast Minnesota

CITY           SKY/WX    TMP DP  RH WIND       PRES   REMARKS
ROCHESTER      SUNNY     63  32  31 VRB7      30.07F
6HR MIN TEMP:  43; 6HR MAX TEMP:  64;

RED WING       LGT RAIN  63  34  34 CALM      30.03F
STANTON        SUNNY     67  29  24 S5        30.03S
DODGE CENTER   SUNNY     66  28  24 W10       30.04F
WINONA         SUNNY     63  32  31 NE3       30.05F
AUSTIN         SUNNY     63  28  27 SW3       30.04F
PRESTON        SUNNY     60  31  33 W7        30.06F
$$
ABBREVIATIONS USED IN REMARKS
   TC - TEMPERATURES IN CELSIUS
  WCI - WIND CHILL INDEX
   HX - HEAT INDEX
  VSB - VISIBILITY
$$




USA.gov is the U.S. government's official web portal to all federal, state and local government web resources and services.